Flag for Germany Weather past 2 weeks in Kamen, North Rhine-Westphalia, Germany

45 °F

Scattered clouds.

Feels Like: 42 °F
Forecast: 47 / 52 °F
Wind: 5 mph from Southwest

Location: Dortmund / Wickede

Current Time: Dec 1, 2015 at 10:45:23 AM

Latest Report: Dec 1, 2015 at 9:50 AM

Visibility: N/A

Pressure: 30.21 "Hg

Humidity: 81%

Dew point: 39 °F

Location of KamenLocation

Historic Weather in Kamen — Graph


Kamen temperature yesterday

Maximum temperature yesterday: 50 °F (at 3:50 PM)
Minimum temperature yesterday: 43 °F (at 12:20 PM)
Average temperature yesterday: 47 °F

Past Weeks' High & Low Weather Summary

High59 °F (Nov 17, 9:20 PM)93% (Nov 21, 10:20 PM)30.24 "Hg (Nov 21, 10:20 PM)
Low32 °F (Nov 22, 6:20 AM)57% (Nov 30, 7:50 AM)29.39 "Hg (Nov 21, 5:20 AM)
Average43 °F77%29.84 "Hg
* Reported Nov 16 8:20 AM — Dec 1 8:50 AM, Kamen, Weather by CustomWeather, © 2015

Note: Actual official high and low records may vary slightly from our data, if they occured in-between our weather recording intervals... More about our weather records


Kamen weather history for previous 24 hours

Time TempWeatherWind HumidityBarometerVisibility
8:50 AM
Tue, Dec 1
45 °FPartly sunny.6 mph81%30.18 "HgN/A
8:20 AM45 °FScattered clouds.5 mph81%30.18 "HgN/A
7:50 AM45 °FPassing clouds.3 mph76%30.15 "HgN/A
7:20 AM45 °FOvercast.3 mph76%30.15 "HgN/A
6:50 AM45 °FOvercast.3 mph76%30.15 "HgN/A
6:20 AM45 °FPassing clouds.3 mph76%30.12 "HgN/A
5:50 AM45 °FOvercast.5 mph81%30.12 "HgN/A
10:50 PM
Mon, Nov 30
50 °FLight rain. Passing clouds.23 mph88%29.86 "Hg5 mi
10:20 PM50 °FLight rain. Passing clouds.24 mph82%29.86 "Hg6 mi
9:50 PM50 °FLight rain. Passing clouds.24 mph82%29.83 "HgN/A
9:20 PM50 °FLight rain. Passing clouds.26 mph82%29.83 "HgN/A
8:50 PM50 °FLight rain. Passing clouds.24 mph82%29.83 "HgN/A
8:20 PM50 °FLight rain. Passing clouds.25 mph82%29.83 "HgN/A
7:50 PM50 °FLight rain. Passing clouds.28 mph82%29.83 "HgN/A
7:20 PM48 °FLight rain. Passing clouds.28 mph87%29.83 "HgN/A
6:50 PM50 °FLight rain. Passing clouds.25 mph82%29.83 "HgN/A
6:20 PM48 °FLight rain. Passing clouds.29 mph82%29.83 "HgN/A
5:50 PM48 °FLight rain. Passing clouds.24 mph82%29.83 "HgN/A
5:20 PM48 °FLight rain. Passing clouds.24 mph87%29.83 "HgN/A
4:50 PM50 °FLight rain. Passing clouds.26 mph82%29.86 "HgN/A
4:20 PM48 °FLight rain. Partly sunny.25 mph87%29.86 "Hg6 mi
3:50 PM50 °FLight rain. Partly sunny.26 mph82%29.86 "HgN/A
3:20 PM48 °FLight rain. Partly sunny.24 mph87%29.89 "HgN/A
2:50 PM48 °FLight rain. Partly sunny.21 mph82%29.89 "Hg5 mi
2:20 PM46 °FLight rain. Partly sunny.21 mph87%29.92 "Hg4 mi
1:50 PM43 °FLight rain. Broken clouds.13 mph87%29.95 "Hg4 mi
1:20 PM43 °FLight rain. Partly sunny.8 mph87%29.98 "Hg4 mi
12:50 PM43 °FLight rain. Partly sunny.7 mph81%30.01 "HgN/A
12:20 PM43 °FLight rain. Partly sunny.13 mph81%30.04 "HgN/A
11:50 AM45 °FLight rain. Partly sunny.17 mph66%30.04 "HgN/A
11:20 AM45 °FSunny.14 mph66%30.04 "Hg10 mi
10:50 AM45 °FSunny.15 mph66%30.04 "Hg10 mi
10:20 AM45 °FSunny.13 mph61%30.07 "Hg10 mi
Weather by CustomWeather, © 2015

See weather overviewHow to use our weather pages